Location: Arena
(42.5007°N, 9.4650°E)
Time: 15:47:08
(UTC+00:00)

Cosmos 1821 Rocket - Pass Details

Date: 09 April 2020
Orbit: 945 x 1005 km, 82.9° (Epoch: 04 June)

Event Time Altitude Azimuth Distance (km) Brightness Sun altitude
Rises 20:18:09 0° 358° (N) 3,731 7.6 -24.2°
Reaches altitude 10° 20:20:51 10° 5° (N) 2,783 6.8 -24.6°
Maximum altitude 20:26:54 43° 76° (ENE) 1,382 4.5 -25.5°
Enters shadow 20:26:58 43° 78° (ENE) 1,383 4.5 -25.5°
